Orbital Elements at Epoch 2459200.5 (2020-Dec-17.0) TDB
Reference: JPL 12 (heliocentric ecliptic J2000)
Element | Value | Uncertainty (1-sigma) | Units |
e | .1898227939101211 | 6.1046e-08 | |
a | 2.146173755444235 | 8.0226e-09 | au |
q | 1.738781056969233 | 1.2728e-07 | au |
i | 2.718945943141879 | 4.2892e-06 | deg |
node | 324.1318269084633 | 0.00015184 | deg |
peri | 4.38617050048204 | 0.00015368 | deg |
M | 182.1527648857744 | 2.6212e-05 | deg |
tp | 2459767.836027782511 (2022-Jul-07.33602778) | 8.5789e-05 | TDB |
period | 1148.406776582872 3.14 | 6.4393e-06 1.763e-08 | d yr |
n | .3134777740263722 | 1.7577e-09 | deg/d |
Q | 2.553566453919236 | 9.5455e-09 | au |
|
| | Orbit Determination Parameters
Additional Information
|